When you browse on this site, cookies collect data to enhance your experience and personalize the content and advertising you see.
Visit our Privacy Policy to learn more. By continuing to use the site, you agree to this use of cookies and data.
  • en France
  • Liste des pays
  • À 7 jours
  • Température de l'eau
  • Carte satellitaire
  • Carte météo
  • Widgets météo
  • user-avatar
    Se connecter

    Météo par heure à Gabrovo

    Ce jour, 27 Mai, Lundi

    Heure Température Précipitation Vent Pression Humidité
    00:00 +14°C° 0 mm 1 m/s 702 mmHg 87%
    01:00 +14°C° 0 mm 1 m/s 702 mmHg 87%
    02:00 +14°C° 0 mm 1 m/s 702 mmHg 88%
    03:00 +13°C° 0 mm 1 m/s 702 mmHg 87%
    04:00 +13°C° 0 mm 1 m/s 702 mmHg 87%
    05:00 +13°C° 0 mm 1 m/s 702 mmHg 87%
    06:00 +14°C° 0 mm 1 m/s 702 mmHg 81%
    07:00 +16°C° 0 mm 2 m/s 702 mmHg 74%
    08:00 +18°C° 0 mm 2 m/s 702 mmHg 68%
    09:00 +19°C° 0 mm 2 m/s 703 mmHg 64%
    10:00 +21°C° 0 mm 3 m/s 703 mmHg 59%
    11:00 +22°C° 0 mm 3 m/s 703 mmHg 55%
    12:00 +23°C° 0 mm 4 m/s 703 mmHg 54%
    13:00 +23°C° 0 mm 4 m/s 702 mmHg 52%
    14:00 +25°C° 0 mm 4 m/s 702 mmHg 51%
    15:00 +25°C° 0 mm 4 m/s 702 mmHg 53%
    16:00 +25°C° 0 mm 4 m/s 702 mmHg 54%
    17:00 +23°C° 0 mm 4 m/s 701 mmHg 56%
    18:00 +21°C° 0 mm 4 m/s 701 mmHg 60%
    19:00 +20°C° 0 mm 3 m/s 701 mmHg 65%
    20:00 +18°C° 0 mm 3 m/s 701 mmHg 69%
    21:00 +17°C° 0 mm 3 m/s 701 mmHg 74%
    22:00 +16°C° 0 mm 3 m/s 700 mmHg 78%
    23:00 +16°C° 0 mm 3 m/s 700 mmHg 83%

    Demain, 28 Mai, Mardi

    Heure Température Précipitation Vent Pression Humidité
    00:00 +14°C° 0.1 mm 3 m/s 700 mmHg 85%
    01:00 +14°C° 0.1 mm 2 m/s 700 mmHg 86%
    02:00 +13°C° 0.1 mm 2 m/s 699 mmHg 88%
    03:00 +12°C° 0 mm 2 m/s 699 mmHg 87%
    04:00 +12°C° 0 mm 2 m/s 699 mmHg 86%
    05:00 +12°C° 0 mm 2 m/s 699 mmHg 85%
    06:00 +14°C° 0 mm 2 m/s 699 mmHg 80%
    07:00 +15°C° 0 mm 2 m/s 699 mmHg 74%
    08:00 +17°C° 0 mm 3 m/s 699 mmHg 69%
    09:00 +19°C° 0 mm 3 m/s 699 mmHg 64%
    10:00 +21°C° 0 mm 4 m/s 699 mmHg 60%
    11:00 +23°C° 0 mm 4 m/s 699 mmHg 55%
    12:00 +25°C° 0 mm 5 m/s 699 mmHg 50%
    13:00 +26°C° 0 mm 6 m/s 699 mmHg 46%
    14:00 +27°C° 0 mm 7 m/s 699 mmHg 41%
    15:00 +26°C° 0 mm 7 m/s 698 mmHg 44%
    16:00 +26°C° 0 mm 7 m/s 698 mmHg 47%
    17:00 +24°C° 0 mm 6 m/s 697 mmHg 49%
    18:00 +21°C° 0 mm 5 m/s 697 mmHg 57%
    19:00 +19°C° 0 mm 4 m/s 697 mmHg 65%
    20:00 +16°C° 0 mm 2 m/s 696 mmHg 73%
    21:00 +15°C° 0 mm 2 m/s 696 mmHg 76%
    22:00 +15°C° 0 mm 2 m/s 697 mmHg 78%
    23:00 +14°C° 0 mm 1 m/s 697 mmHg 80%

    Après-demain, 29 Mai, Mercredi

    Heure Température Précipitation Vent Pression Humidité
    00:00 +14°C° 0 mm 1 m/s 697 mmHg 80%
    01:00 +14°C° 0 mm 1 m/s 697 mmHg 79%
    02:00 +14°C° 0 mm 1 m/s 697 mmHg 78%
    03:00 +13°C° 0 mm 1 m/s 697 mmHg 79%
    04:00 +13°C° 0 mm 1 m/s 697 mmHg 79%
    05:00 +13°C° 0 mm 1 m/s 697 mmHg 79%
    06:00 +15°C° 0 mm 1 m/s 698 mmHg 75%
    07:00 +18°C° 0 mm 1 m/s 698 mmHg 70%
    08:00 +20°C° 0 mm 1 m/s 699 mmHg 65%
    09:00 +21°C° 0.1 mm 1 m/s 699 mmHg 63%
    10:00 +21°C° 0.1 mm 2 m/s 699 mmHg 60%
    11:00 +24°C° 0.1 mm 2 m/s 700 mmHg 57%
    12:00 +24°C° 0.1 mm 2 m/s 700 mmHg 54%
    13:00 +25°C° 0.1 mm 2 m/s 700 mmHg 50%
    14:00 +26°C° 0.1 mm 2 m/s 699 mmHg 47%
    15:00 +26°C° 0.2 mm 2 m/s 699 mmHg 49%
    16:00 +26°C° 0.2 mm 2 m/s 699 mmHg 51%
    17:00 +26°C° 0.2 mm 2 m/s 699 mmHg 52%
    18:00 +24°C° 0.2 mm 1 m/s 699 mmHg 60%
    19:00 +22°C° 0.2 mm 1 m/s 699 mmHg 67%
    20:00 +19°C° 0.2 mm 1 m/s 699 mmHg 75%
    21:00 +19°C° 0.3 mm 1 m/s 699 mmHg 78%
    22:00 +18°C° 0.3 mm 1 m/s 699 mmHg 81%
    23:00 +16°C° 0.3 mm 1 m/s 700 mmHg 83%

    30 Mai, Jeudi

    Heure Température Précipitation Vent Pression Humidité
    00:00 +16°C° 0.2 mm 1 m/s 700 mmHg 84%
    01:00 +16°C° 0.2 mm 1 m/s 700 mmHg 85%
    02:00 +15°C° 0.2 mm 1 m/s 700 mmHg 86%
    03:00 +15°C° 0.1 mm 1 m/s 700 mmHg 87%
    04:00 +15°C° 0.1 mm 1 m/s 700 mmHg 87%
    05:00 +15°C° 0.1 mm 1 m/s 700 mmHg 88%
    06:00 +16°C° 0.2 mm 1 m/s 700 mmHg 83%
    07:00 +19°C° 0.2 mm 1 m/s 700 mmHg 78%
    08:00 +20°C° 0.2 mm 1 m/s 701 mmHg 74%
    09:00 +21°C° 0.9 mm 1 m/s 701 mmHg 71%
    10:00 +21°C° 0.9 mm 2 m/s 701 mmHg 69%
    11:00 +23°C° 0.9 mm 2 m/s 701 mmHg 66%
    12:00 +23°C° 1.8 mm 2 m/s 701 mmHg 66%
    13:00 +23°C° 1.8 mm 2 m/s 701 mmHg 67%
    14:00 +23°C° 1.8 mm 2 m/s 700 mmHg 67%
    15:00 +23°C° 2 mm 2 m/s 700 mmHg 70%
    16:00 +21°C° 2 mm 3 m/s 700 mmHg 73%
    17:00 +21°C° 2 mm 3 m/s 700 mmHg 76%
    18:00 +19°C° 1 mm 3 m/s 700 mmHg 80%
    19:00 +18°C° 1 mm 3 m/s 699 mmHg 84%
    20:00 +16°C° 1 mm 2 m/s 699 mmHg 88%
    21:00 +15°C° 0.3 mm 2 m/s 699 mmHg 89%
    22:00 +15°C° 0.3 mm 2 m/s 699 mmHg 90%
    23:00 +14°C° 0.3 mm 2 m/s 699 mmHg 91%

    31 Mai, Vendredi

    Heure Température Précipitation Vent Pression Humidité
    00:00 +14°C° 0.2 mm 2 m/s 699 mmHg 92%
    01:00 +14°C° 0.2 mm 2 m/s 699 mmHg 93%
    02:00 +14°C° 0.2 mm 2 m/s 699 mmHg 93%
    03:00 +14°C° 0 mm 2 m/s 699 mmHg 93%
    04:00 +14°C° 0 mm 2 m/s 699 mmHg 92%
    05:00 +13°C° 0 mm 2 m/s 699 mmHg 92%
    06:00 +14°C° 0 mm 2 m/s 699 mmHg 88%
    07:00 +15°C° 0 mm 2 m/s 699 mmHg 84%
    08:00 +16°C° 0 mm 2 m/s 700 mmHg 80%
    09:00 +17°C° 0.1 mm 2 m/s 700 mmHg 74%
    10:00 +20°C° 0.1 mm 1 m/s 700 mmHg 68%
    11:00 +21°C° 0.1 mm 1 m/s 700 mmHg 62%
    12:00 +20°C° 1.3 mm 2 m/s 699 mmHg 65%
    13:00 +20°C° 1.3 mm 2 m/s 699 mmHg 68%
    14:00 +19°C° 1.3 mm 2 m/s 699 mmHg 71%
    15:00 +19°C° 1.7 mm 2 m/s 699 mmHg 76%
    16:00 +18°C° 1.7 mm 2 m/s 698 mmHg 80%
    17:00 +17°C° 1.7 mm 2 m/s 698 mmHg 84%
    18:00 +16°C° 0.9 mm 2 m/s 698 mmHg 86%
    19:00 +15°C° 0.9 mm 2 m/s 698 mmHg 88%
    20:00 +14°C° 0.9 mm 2 m/s 698 mmHg 90%
    21:00 +14°C° 0.4 mm 2 m/s 698 mmHg 91%
    22:00 +14°C° 0.4 mm 2 m/s 698 mmHg 91%
    23:00 +13°C° 0.4 mm 2 m/s 698 mmHg 92%

    1 Juin, Samedi

    Heure Température Précipitation Vent Pression Humidité
    00:00 +13°C° 0.7 mm 2 m/s 698 mmHg 92%
    01:00 +13°C° 0.7 mm 2 m/s 698 mmHg 92%
    02:00 +13°C° 0.7 mm 2 m/s 698 mmHg 93%
    03:00 +13°C° 1.2 mm 2 m/s 698 mmHg 93%
    04:00 +12°C° 1.2 mm 2 m/s 698 mmHg 93%
    05:00 +12°C° 1.2 mm 2 m/s 698 mmHg 94%
    06:00 +12°C° 2.3 mm 2 m/s 698 mmHg 93%
    07:00 +13°C° 2.3 mm 2 m/s 698 mmHg 93%
    08:00 +13°C° 2.3 mm 1 m/s 698 mmHg 92%
    09:00 +13°C° 1.4 mm 2 m/s 698 mmHg 90%
    10:00 +13°C° 1.4 mm 2 m/s 699 mmHg 88%
    11:00 +14°C° 1.4 mm 2 m/s 699 mmHg 86%
    12:00 +15°C° 0.1 mm 2 m/s 699 mmHg 79%
    13:00 +16°C° 0.1 mm 3 m/s 699 mmHg 73%
    14:00 +18°C° 0.1 mm 3 m/s 700 mmHg 66%
    15:00 +17°C° 0 mm 3 m/s 700 mmHg 68%
    16:00 +16°C° 0 mm 3 m/s 700 mmHg 70%
    17:00 +14°C° 0 mm 3 m/s 699 mmHg 73%
    18:00 +13°C° 0 mm 3 m/s 700 mmHg 74%
    19:00 +13°C° 0 mm 3 m/s 700 mmHg 75%
    20:00 +13°C° 0 mm 2 m/s 700 mmHg 77%
    21:00 +12°C° 0 mm 2 m/s 700 mmHg 77%
    22:00 +12°C° 0 mm 2 m/s 701 mmHg 78%
    23:00 +10°C° 0 mm 2 m/s 701 mmHg 78%
    Voir plus